Location: Drocourt
(49.0571°N, 1.7669°E)
Time: 14:48:09
(UTC+00:00)

Vanguard 1 Rocket - Pass Details

Date: 15 April 2024
Orbit: 651 x 4220 km, 34.3° (Epoch: 19 May)

Event Time Altitude Azimuth Distance (km) Brightness Sun altitude
Exits shadow 02:21:32 19° 191° (S) 5,893 11.0 -22.6°
Drops below altitude 10° 02:30:15 10° 172° (S) 7,146 11.6 -21.7°
Sets 02:38:37 0° 159° (SSE) 8,420 12.1 -20.7°
